"Pseudo-MPEC" for P11CmvZ

Created 2022 Dec 15 21:22:11 UT using Find_Orb

Click here for an explanation of pseudo-MPECs

 
 Astrometry: 
     P11CmvZ* C2022 12 01,?AstrometryfEredacted;ohMPCpyGJV[2(#QR8S\click?RF3)F51
     P11CmvZ  C2022 12 01g?.dW#,^S*T,+X@DDCuw[(3T49UHBBgyP,V-l:here:vHF[Zb!%aF51
     P11CmvZ  C2022 12 01xT8Z]KhqdCsa@a`JGforpX9drj2sexplanationKF5'Kv%49=9(4F51

Station data:
(F51) Pan-STARRS 1, Haleakala  (N20.707234 W156.255910)  US/Hawaii.
   Observers J. Bulger, T. Lowe, A. Schultz, M. Willman. Measurers K.
   Chambers, S. Chastel, T. de Boer, L. Denneau, J. Fairlamb, H. Flewelling,
   M. Huber, C.-C. Lin, E. Magnier, Y. Ramanjooloo, R. Wainscoat, R. Weryk.
   1.8-m Ritchey-Chrétien + CCD.

Orbital elements:  P11CmvZ
   Perihelion 2022 Nov 28.06235 +/- 35.1 TT =  1:29:47 (JD 2459911.56235)
Epoch 2022 Dec  2.0 TT = JDT 2459915.5   Earth MOID: 0.2979      AutoNEOCP
M   0.89758395 +/- 46               (J2000 ecliptic)
n   0.22794917 +/- 0.442            Peri.    2.67462 +/- 80
a   2.65405974 +/- 3.43             Node    82.10411 +/- 60
e   0.5170066 +/- 0.262             Incl.   25.56114 +/- 52
P   4.32                   H 21.52  G  0.15   U 12.2  SR
q 1.28189316 +/- 0.465    Q 4.02622632 +/- 19.9
From 3 observations 2022 Dec. 1 (54.3 min); mean residual 0".02
Residuals in arcseconds: 
221201 F51  .02+  .01-    221201 F51  .03-  .01+    221201 F51  .01+  .00     

Ephemerides (geocentric):
Date (UTC) HH   RA             Dec           delta  r     elong  mag " sig PA
---- --------  ------------   ------------  ------ ------ -----  --- --------
2022 12 15 21  09 38 49.228   +37 32 34.56  .44553 1.2965 125.9 21.9  61d  21
2022 12 15 22  09 38 57.127   +37 34 51.95  .44554 1.2966 125.9 21.9  61d  21
2022 12 15 23  09 39 05.025   +37 37 09.31  .44554 1.2967 125.9 21.9  61d  21
2022 12 16 00  09 39 12.922   +37 39 26.64  .44555 1.2967 125.9 21.9  61d  21
2022 12 16 01  09 39 20.817   +37 41 43.94  .44556 1.2968 125.9 21.9  61d  21
2022 12 16 02  09 39 28.710   +37 44 01.20  .44557 1.2969 125.9 21.9  61d  21
2022 12 16 03  09 39 36.601   +37 46 18.44  .44558 1.2969 125.9 21.9  61d  21
2022 12 16 04  09 39 44.491   +37 48 35.64  .44559 1.2970 126.0 21.9  61d  21
2022 12 16 05  09 39 52.380   +37 50 52.81  .44560 1.2971 126.0 21.9  61d  21
2022 12 16 06  09 40 00.266   +37 53 09.95  .44561 1.2971 126.0 21.9  61d  21
2022 12 16 07  09 40 08.151   +37 55 27.06  .44562 1.2972 126.0 21.9  61d  21
2022 12 16 08  09 40 16.034   +37 57 44.13  .44563 1.2973 126.0 21.9  61d  21
2022 12 16 09  09 40 23.915   +38 00 01.17  .44564 1.2973 126.0 21.9  61d  21
2022 12 16 10  09 40 31.795   +38 02 18.18  .44565 1.2974 126.0 21.9  61d  21
2022 12 16 11  09 40 39.673   +38 04 35.15  .44566 1.2975 126.0 21.9  61d  21
2022 12 16 12  09 40 47.549   +38 06 52.09  .44568 1.2976 126.1 21.9  61d  21
2022 12 16 13  09 40 55.423   +38 09 08.99  .44569 1.2976 126.1 21.9  61d  21
2022 12 16 14  09 41 03.296   +38 11 25.86  .44570 1.2977 126.1 21.9  61d  21
2022 12 16 15  09 41 11.167   +38 13 42.70  .44572 1.2978 126.1 21.9  61d  21
2022 12 16 16  09 41 19.036   +38 15 59.50  .44573 1.2978 126.1 21.9  61d  21
2022 12 16 17  09 41 26.903   +38 18 16.26  .44574 1.2979 126.1 21.9  61d  21
2022 12 16 18  09 41 34.769   +38 20 32.99  .44576 1.2980 126.1 21.9  61d  21
2022 12 16 19  09 41 42.632   +38 22 49.69  .44577 1.2981 126.2 21.9  61d  21
2022 12 16 20  09 41 50.494   +38 25 06.34  .44579 1.2981 126.2 21.9  61d  22
2022 12 16 21  09 41 58.354   +38 27 22.96  .44580 1.2982 126.2 21.9  61d  22
2022 12 16 22  09 42 06.212   +38 29 39.55  .44582 1.2983 126.2 21.9  61d  22
2022 12 16 23  09 42 14.068   +38 31 56.09  .44584 1.2983 126.2 21.9  60d  22
2022 12 17 00  09 42 21.922   +38 34 12.60  .44585 1.2984 126.2 21.9  60d  22
2022 12 17 01  09 42 29.775   +38 36 29.07  .44587 1.2985 126.2 21.9  60d  22
2022 12 17 02  09 42 37.625   +38 38 45.51  .44589 1.2986 126.2 21.9  60d  22
2022 12 17 03  09 42 45.474   +38 41 01.90  .44590 1.2986 126.3 21.9  60d  22
2022 12 17 04  09 42 53.320   +38 43 18.26  .44592 1.2987 126.3 21.9  60d  22
2022 12 17 05  09 43 01.165   +38 45 34.58  .44594 1.2988 126.3 21.9  60d  22
2022 12 17 06  09 43 09.008   +38 47 50.86  .44596 1.2988 126.3 21.9  60d  22
2022 12 17 07  09 43 16.849   +38 50 07.10  .44598 1.2989 126.3 21.9  60d  22
2022 12 17 08  09 43 24.688   +38 52 23.30  .44600 1.2990 126.3 21.9  60d  22
2022 12 17 09  09 43 32.524   +38 54 39.46  .44602 1.2991 126.3 21.9  60d  22
2022 12 17 10  09 43 40.359   +38 56 55.58  .44604 1.2991 126.3 21.9  60d  22
2022 12 17 11  09 43 48.192   +38 59 11.66  .44606 1.2992 126.4 21.9  60d  22
2022 12 17 12  09 43 56.023   +39 01 27.70  .44608 1.2993 126.4 21.9  60d  22
2022 12 17 13  09 44 03.852   +39 03 43.70  .44610 1.2994 126.4 21.9  60d  22
2022 12 17 14  09 44 11.679   +39 05 59.66  .44612 1.2994 126.4 21.9  60d  22
2022 12 17 15  09 44 19.504   +39 08 15.58  .44614 1.2995 126.4 21.9  60d  22
2022 12 17 16  09 44 27.326   +39 10 31.45  .44617 1.2996 126.4 21.9  60d  22
2022 12 17 17  09 44 35.147   +39 12 47.29  .44619 1.2997 126.4 21.9  60d  22
2022 12 17 18  09 44 42.966   +39 15 03.08  .44621 1.2997 126.4 21.9  60d  22
2022 12 17 19  09 44 50.782   +39 17 18.83  .44623 1.2998 126.5 21.9  60d  22
2022 12 17 20  09 44 58.596   +39 19 34.53  .44626 1.2999 126.5 21.9  60d  22